| time (UTC) | temp F | wind direction | speed knots | gust knots | rain 1hr in | rain 24hr in | rain mn in | humidity % | barometer mb |
| 20260505193104 | 52 | 45 | 3.5 | 7.8 | 0.00 | 0.00 | 0.00 | 72 | 1011.9 |
| 20260505191604 | 52 | 351 | 3.5 | 7.8 | 0.00 | 0.00 | 0.00 | 71 | 1012.0 |
| 20260505190119 | 53 | 355 | 2.6 | 7.8 | 0.00 | 0.00 | 0.00 | 71 | 1011.9 |
| 20260505184611 | 54 | 76 | 1.7 | 7.8 | 0.00 | 0.00 | 0.00 | 71 | 1011.8 |
| 20260505183102 | 55 | 17 | 1.7 | 4.3 | 0.00 | 0.00 | 0.00 | 71 | 1011.7 |
| 20260505181603 | 55 | 13 | 1.7 | 7.0 | 0.00 | 0.00 | 0.00 | 69 | 1011.7 |
| 20260505174556 | 56 | 19 | 2.6 | 7.0 | 0.00 | 0.00 | 0.00 | 67 | 1011.8 |
| 20260505173056 | 57 | 39 | 0.9 | 7.8 | 0.00 | 0.00 | 0.00 | 65 | 1011.7 |
| 20260505171558 | 58 | 32 | 3.5 | 8.7 | 0.00 | 0.00 | 0.00 | 62 | 1011.7 |
| 20260505170109 | 59 | 55 | 5.2 | 10.4 | 0.00 | 0.00 | 0.00 | 60 | 1011.7 |
| 20260505164555 | 60 | 30 | 5.2 | 11.3 | 0.00 | 0.00 | 0.00 | 59 | 1011.8 |
| 20260505163059 | 61 | 5 | 5.2 | 11.3 | 0.00 | 0.00 | 0.00 | 57 | 1011.9 |
| 20260505161555 | 61 | 19 | 7.0 | 16.5 | 0.00 | 0.00 | 0.00 | 57 | 1011.9 |
| 20260505153107 | 64 | 348 | 4.3 | 13.9 | 0.00 | 0.00 | 0.00 | 57 | 1011.8 |
| 20260505151557 | 63 | 360 | 5.2 | 12.2 | 0.00 | 0.00 | 0.00 | 57 | 1011.9 |
| 20260505150114 | 63 | 76 | 6.1 | 13.9 | 0.00 | 0.00 | 0.00 | 59 | 1012.0 |
| 20260505140117 | 61 | 360 | 6.1 | 11.3 | 0.00 | 0.00 | 0.00 | 61 | 1012.1 |
| 20260505130110 | 62 | 360 | 3.5 | 11.3 | 0.00 | 0.00 | 0.00 | 65 | 1012.4 |
| 20260505124617 | 62 | 38 | 4.3 | 10.4 | 0.00 | 0.00 | 0.00 | 65 | 1012.4 |
| 20260505123118 | 62 | 355 | 2.6 | 9.6 | 0.00 | 0.00 | 0.00 | 67 | 1012.4 |
| 20260505121556 | 61 | 35 | 5.2 | 11.3 | 0.00 | 0.00 | 0.00 | 65 | 1012.4 |
| 20260505120059 | 61 | 5 | 6.1 | 13.0 | 0.00 | 0.00 | 0.00 | 66 | 1012.5 |
| 20260505114602 | 59 | 32 | 5.2 | 13.0 | 0.00 | 0.00 | 0.00 | 70 | 1012.5 |
| 20260505113058 | 59 | 15 | 4.3 | 11.3 | 0.00 | 0.00 | 0.00 | 71 | 1012.5 |
| 20260505111603 | 58 | 43 | 2.6 | 11.3 | 0.00 | 0.00 | 0.00 | 71 | 1012.6 |
| 20260505101559 | 58 | 21 | 3.5 | 13.0 | 0.00 | 0.00 | 0.00 | 72 | 1012.5 |
| 20260505100105 | 57 | 360 | 7.0 | 13.9 | 0.00 | 0.00 | 0.00 | 70 | 1012.4 |
| 20260505094608 | 57 | 29 | 5.2 | 12.2 | 0.00 | 0.00 | 0.00 | 71 | 1012.7 |
| 20260505093101 | 58 | 34 | 7.0 | 11.3 | 0.00 | 0.00 | 0.00 | 71 | 1012.8 |
| 20260505091554 | 57 | 355 | 6.1 | 13.0 | 0.00 | 0.00 | 0.00 | 72 | 1012.9 |
| 20260505090109 | 57 | 21 | 5.2 | 13.0 | 0.00 | 0.00 | 0.00 | 72 | 1013.0 |
| 20260505084558 | 57 | 19 | 4.3 | 14.8 | 0.00 | 0.00 | 0.00 | 76 | 1012.8 |
| 20260505083110 | 56 | 324 | 5.2 | 14.8 | 0.00 | 0.00 | 0.00 | 75 | 1012.7 |
| 20260505081608 | 55 | 28 | 7.0 | 14.8 | 0.00 | 0.00 | 0.00 | 79 | 1012.8 |
| 20260505080059 | 54 | 12 | 7.0 | 13.0 | 0.00 | 0.00 | 0.00 | 82 | 1012.8 |
| 20260505074556 | 53 | 329 | 4.3 | 10.4 | 0.00 | 0.00 | 0.00 | 84 | 1012.7 |
| 20260505073101 | 51 | 345 | 4.3 | 16.5 | 0.00 | 0.00 | 0.00 | 85 | 1012.7 |
| 20260505071557 | 51 | 338 | 7.0 | 13.9 | 0.00 | 0.00 | 0.00 | 86 | 1012.7 |
| 20260505070059 | 50 | 23 | 6.1 | 13.0 | 0.00 | 0.00 | 0.00 | 87 | 1012.8 |
| 20260505064558 | 50 | 360 | 6.1 | 14.8 | 0.00 | 0.00 | 0.00 | 87 | 1012.8 |
| 20260505063100 | 49 | 351 | 7.0 | 13.9 | 0.00 | 0.00 | 0.00 | 88 | 1012.8 |
| 20260505061602 | 49 | 5 | 4.3 | 13.0 | 0.00 | 0.00 | 0.00 | 89 | 1012.9 |
| 20260505060058 | 49 | 32 | 4.3 | 10.4 | 0.00 | 0.00 | 0.00 | 89 | 1012.7 |
| 20260505054558 | 49 | 47 | 5.2 | 13.9 | 0.00 | 0.00 | 0.00 | 89 | 1012.9 |
| 20260505053055 | 48 | 360 | 7.0 | 13.9 | 0.00 | 0.00 | 0.00 | 89 | 1012.9 |
| 20260505051558 | 48 | 17 | 5.2 | 11.3 | 0.00 | 0.00 | 0.00 | 89 | 1012.9 |
| 20260505050128 | 48 | 53 | 5.2 | 12.2 | 0.00 | 0.00 | 0.00 | 89 | 1013.0 |
| 20260505041606 | 49 | 34 | 4.3 | 8.7 | 0.00 | 0.00 | 0.00 | 89 | 1013.4 |
| 20260505034554 | 49 | 15 | 1.7 | 7.8 | 0.00 | 0.00 | 0.00 | 90 | 1013.5 |
| 20260505033055 | 49 | 38 | 3.5 | 8.7 | 0.00 | 0.00 | 0.00 | 90 | 1013.6 |
| 20260505031559 | 49 | 32 | 2.6 | 9.6 | 0.00 | 0.00 | 0.00 | 90 | 1013.6 |
| 20260505030058 | 49 | 26 | 3.5 | 8.7 | 0.00 | 0.00 | 0.00 | 90 | 1013.7 |
| 20260505024555 | 49 | 42 | 2.6 | 8.7 | 0.00 | 0.00 | 0.00 | 90 | 1013.7 |
| 20260505023058 | 50 | 20 | 2.6 | 7.8 | 0.00 | 0.00 | 0.00 | 90 | 1013.7 |
| 20260505021556 | 50 | 360 | 3.5 | 8.7 | 0.00 | 0.00 | 0.00 | 90 | 1013.8 |
| 20260505020057 | 50 | 40 | 3.5 | 9.6 | 0.00 | 0.00 | 0.00 | 90 | 1014.0 |
| 20260505014616 | 50 | 27 | 2.6 | 7.8 | 0.00 | 0.00 | 0.00 | 90 | 1014.1 |
| 20260505013057 | 50 | 350 | 3.5 | 9.6 | 0.00 | 0.00 | 0.00 | 90 | 1014.0 |
| 20260505011606 | 50 | 53 | 2.6 | 6.1 | 0.00 | 0.00 | 0.00 | 90 | 1014.1 |
| 20260505010100 | 50 | 0 | 2.6 | 7.8 | 0.00 | 0.00 | 0.00 | 89 | 1014.0 |
| 20260505004559 | 50 | 9 | 2.6 | 7.8 | 0.00 | 0.00 | 0.00 | 89 | 1014.3 |
| 20260505003101 | 50 | 10 | 2.6 | 10.4 | 0.00 | 0.00 | 0.00 | 89 | 1014.6 |
| 20260505001633 | 50 | 21 | 2.6 | 7.8 | 0.00 | 0.00 | 0.00 | 90 | 1014.7 |
| 20260505000137 | 51 | 355 | 5.2 | 10.4 | 0.00 | 0.00 | 0.00 | 90 | 1014.8 |
| 20260504234614 | 51 | 355 | 3.5 | 7.8 | 0.00 | 0.00 | 0.00 | 90 | 1014.9 |
| 20260504233107 | 51 | 355 | 4.3 | 8.7 | 0.00 | 0.00 | 0.00 | 90 | 1014.8 |
| 20260504231558 | 51 | 67 | 3.5 | 9.6 | 0.00 | 0.00 | 0.00 | 90 | 1014.6 |
| 20260504230056 | 51 | 47 | 2.6 | 9.6 | 0.00 | 0.00 | 0.00 | 90 | 1014.8 |
| 20260504224609 | 51 | 355 | 2.6 | 8.7 | 0.00 | 0.00 | 0.00 | 89 | 1014.9 |
| 20260504223057 | 51 | 10 | 0.9 | 6.1 | 0.00 | 0.00 | 0.00 | 89 | 1015.1 |
| 20260504221557 | 52 | 38 | 1.7 | 5.2 | 0.00 | 0.00 | 0.00 | 89 | 1015.3 |
| 20260504220100 | 52 | 70 | 0.9 | 4.3 | 0.00 | 0.00 | 0.00 | 88 | 1015.3 |
| 20260504214555 | 52 | 45 | 2.6 | 7.8 | 0.00 | 0.00 | 0.00 | 88 | 1015.3 |
| 20260504213130 | 52 | 330 | 3.5 | 7.8 | 0.00 | 0.00 | 0.00 | 88 | 1015.3 |
| 20260504211605 | 52 | 5 | 3.5 | 9.6 | 0.00 | 0.00 | 0.00 | 88 | 1015.2 |
| 20260504210058 | 52 | 33 | 4.3 | 9.6 | 0.00 | 0.00 | 0.00 | 88 | 1015.0 |
| 20260504204557 | 53 | 71 | 3.5 | 7.8 | 0.00 | 0.00 | 0.00 | 88 | 1015.1 |
| 20260504203120 | 53 | 17 | 2.6 | 7.8 | 0.00 | 0.00 | 0.00 | 87 | 1015.1 |
| 20260504201559 | 53 | 5 | 3.5 | 9.6 | 0.00 | 0.00 | 0.00 | 87 | 1015.1 |
| 20260504200057 | 54 | 28 | 1.7 | 6.1 | 0.00 | 0.00 | 0.00 | 86 | 1015.0 |
| 20260504194604 | 54 | 57 | 1.7 | 7.0 | 0.00 | 0.00 | 0.00 | 85 | 1014.8 |